Regional Weather Roundup
Issued by NWS

Home | Current Version | Previous Version | Graphics & Text | Print | Product List | Glossary On
Versions: 1 2 3 4 5 6 7 8 9 10 11 12 13 14 15 16 17 18 19 20 21 22 23 24 25 26 27 28 29 30 31 32 33 34 35 36 37 38 39 40 41 42 43 44 45 46 47 48 49 50
000
ASUS43 KFSD 231110
RWRSD

WEATHER ROUNDUP FOR SOUTH DAKOTA
NATIONAL WEATHER SERVICE SIOUX FALLS SD
500 AM CST MON JAN 23 2017

NOTE: "FAIR" INDICATES FEW OR NO CLOUDS BELOW 12,000 FEET WITH NO
SIGNIFICANT WEATHER AND/OR OBSTRUCTIONS TO VISIBILITY.


SDZ001>005-009-010-012>017-231200-
NORTHWEST AND NORTH CENTRAL SOUTH DAKOTA

CITY           SKY/WX    TMP DP  RH WIND       PRES   REMARKS
BUFFALO          N/A     18  14  84 SE5       29.64F WCI  11
FAITH            N/A     24  21  88 E7        29.77S WCI  16
MOBRIDGE       CLOUDY    29  23  78 CALM      29.78F
$$

SDZ012>016-024>037-041>051-057-063-072>074-231200-
SOUTHWEST AND SOUTH CENTRAL SOUTH DAKOTA

CITY           SKY/WX    TMP DP  RH WIND       PRES   REMARKS
RAPID CTY ARPT CLOUDY    22  20  92 CALM      29.69F
PIERRE         CLOUDY    27  22  81 E3        29.82F
CUSTER         CLOUDY    27  12  53 VRB5      29.64F WCI  22
ELLSWORTH AFB  CLOUDY    23  21  93 S5        29.68F WCI  17
PHILIP         FOG       22  21  96 E8        29.78F VSB 1/2 WCI  12
PINE RIDGE     CLOUDY    30  19  63 CALM      29.71F
SPEARFISH      FAIR      28  18  64 E7        29.64F WCI  21
WINNER         FOG       25  23  92 S7        29.83F VSB 1/4 WCI  17
$$

SDZ004>011-016>023-039-040-231200-
NORTHEAST SOUTH DAKOTA

CITY           SKY/WX    TMP DP  RH WIND       PRES   REMARKS
ABERDEEN       CLOUDY    30  24  78 NW5       29.84R WCI  25
WATERTOWN      CLOUDY    29  26  89 N7        29.81S WCI  22
BROOKINGS      CLOUDY    29  27  92 N8        29.82F WCI  21
SISSETON         N/A     33  29  85 NW9       29.82S WCI  25
$$

SDZ017-020-022-023-036>040-048>070-231200-
SOUTHEAST SOUTH DAKOTA

CITY           SKY/WX    TMP DP  RH WIND       PRES   REMARKS
SIOUX FALLS    CLOUDY    31  29  92 NW8       29.85S WCI  23
HURON          CLOUDY    29  26  89 NW6       29.84F WCI  23
CHAMBERLAIN    CLOUDY    30  28  91 CALM      29.85R
MITCHELL       CLOUDY    31  26  82 NW7       29.87S WCI  24
YANKTON        CLOUDY    30  25  80 NW6       29.86F WCI  24
$$

ABBREVIATIONS USED IN REMARKS
   TC - TEMPERATURE IN CELSIUS
  WCI - WIND CHILL INDEX
   HX - HEAT INDEX
  VSB - VISIBILITY





USA.gov is the U.S. government's official web portal to all federal, state and local government web resources and services.